Project,Study,Ord_Occ,Event_Num,Cast_ID,Date_Time_UTC,Date_Time_PST,Lat_Dec,Lon_Dec,Sta_ID,Line,Sta,Depth,Pressure,PrQ,Temp1,Temp1Q,Temp2,Temp2Q,TempAve,Salt1,Salt1Q,Salt1_Corr,Salt2,Salt2Q,Salt2_Corr,SaltAve_Corr,Ox1,Ox1Q,Ox1_CruiseCorr,Ox1_StaCorr,Ox2,Ox2Q,Ox2_CruiseCorr,Ox2_StaCorr,OxAve_StaCorr,Ox1uM,Ox1uM_CruiseCorr,Ox1uM_StaCorr,Ox2uM,Ox2uM_CruiseCorr,Ox2uM_StaCorr,OxAveuM_StaCorr,FluorV,FluorQ,EstChl_CruiseCorr,EstChl_StaCorr,ISUSV,ISUSQ,EstNO3_CruiseCorr,EstNO3_StaCorr,SigThetaTS1,SigThetaTS1Q,SigThetaTS2,SigThetaTS2Q,BAT,XMiss,TransQ,pH,pHQ,SPAR,SPARQ,PAR,PARQ,PoT1,PoT2,DynHt,SVA,OxSat1,OxSat2,BTL_Depth,BTL_Temp,SaltB,OxB,OxBuM,Chl-a,Phaeo,NO3,NO2,NH4,PO4,SIL
CalCOFI,2101RL,078,,2101_078u,03-Feb-2021 21:16:14,03-Feb-2021 13:16:14,35.21508,-123.78199,070.0 080.0,070.0,080.0,517.000,521.426,,5.9337,,5.9346,,5.9342,34.2697,,34.2755,34.2680,,34.2700,34.2728,0.3156,,0.3302,0.2904,0.3054,,0.3224,0.2896,0.2900,13.725,14.6275,28.8259,13.278,15.7148,28.4303,28.6281,0.0328,,,, ,, , ,26.9896,,26.9881,,0.7225,83.4737,,,,2.1107E+03,,1.0000E-12,,5.8885,5.8894,0.8660,112.991,4.539,4.391,,,,,,,,,,,,
CalCOFI,2101RL,078,,2101_078u,03-Feb-2021 21:16:19,03-Feb-2021 13:16:19,35.21508,-123.78201,070.0 080.0,070.0,080.0,516.000,520.416,,5.9362,,5.9370,,5.9366,34.2695,,34.2753,34.2678,,34.2698,34.2726,0.3132,,0.3277,0.2879,0.3126,,0.3300,0.2972,0.2926,13.619,14.5166,28.7438,13.592,15.5970,28.6795,28.7117,0.0329,,,, ,, , ,26.9891,,26.9877,,0.7225,83.4745,,,,2.1117E+03,,1.0000E-12,,5.8911,5.8919,0.8661,113.031,4.504,4.495,516,,34.2628,0.340,14.84,,,,,,,
CalCOFI,2101RL,078,,2101_078u,03-Feb-2021 21:16:42,03-Feb-2021 13:16:42,35.21507,-123.78207,070.0 080.0,070.0,080.0,515.000,519.406,,5.9392,,5.9397,,5.9395,34.2691,,34.2749,34.2675,,34.2695,34.2722,0.3122,,0.3266,0.2868,0.3137,,0.3312,0.2984,0.2926,13.575,14.4705,28.7096,13.644,15.5480,28.7208,28.7152,0.0331,,,, ,, , ,26.9884,,26.9871,,0.7224,83.4771,,,,2.1098E+03,,1.0000E-12,,5.8942,5.8948,0.8678,113.083,4.490,4.513,,,,,,,,,,,,
CalCOFI,2101RL,078,,2101_078u,03-Feb-2021 21:17:20,03-Feb-2021 13:17:20,35.21506,-123.78219,070.0 080.0,070.0,080.0,514.000,518.396,,5.9402,,5.9406,,5.9404,34.2690,,34.2748,34.2674,,34.2694,34.2721,0.3148,,0.3294,0.2895,0.3125,,0.3299,0.2971,0.2933,13.689,14.5898,28.7980,13.588,15.6748,28.6763,28.7372,0.0329,,,, ,, , ,26.9882,,26.9869,,0.7220,83.4854,,,,2.1135E+03,,1.0000E-12,,5.8953,5.8956,0.8724,113.092,4.528,4.494,,,,,,,,,,,,
CalCOFI,2101RL,078,,2101_078u,03-Feb-2021 21:17:28,03-Feb-2021 13:17:28,35.21506,-123.78220,070.0 080.0,070.0,080.0,513.000,517.387,,5.9431,,5.9421,,5.9426,34.2688,,34.2746,34.2672,,34.2692,34.2719,0.3168,,0.3315,0.2916,0.3131,,0.3305,0.2977,0.2947,13.778,14.6830,28.8670,13.614,15.7738,28.6970,28.7820,0.0329,,,, ,, , ,26.9877,,26.9865,,0.7221,83.4839,,,,2.1007E+03,,1.0000E-12,,5.8983,5.8973,0.8731,113.131,4.558,4.503,,,,,,,,,,,,
CalCOFI,2101RL,078,,2101_078u,03-Feb-2021 21:17:32,03-Feb-2021 13:17:32,35.21508,-123.78220,070.0 080.0,070.0,080.0,512.000,516.377,,5.9642,,5.9666,,5.9654,34.2663,,34.2721,34.2647,,34.2667,34.2694,0.3179,,0.3326,0.2928,0.3185,,0.3363,0.3035,0.2982,13.823,14.7301,28.9019,13.849,15.8238,28.8835,28.8927,0.0330,,,, ,, , ,26.9830,,26.9815,,0.7222,83.4812,,,,2.1025E+03,,1.0000E-12,,5.9194,5.9218,0.8732,113.582,4.575,4.584,,,,,,,,,,,,
CalCOFI,2101RL,078,,2101_078u,03-Feb-2021 21:17:33,03-Feb-2021 13:17:33,35.21506,-123.78220,070.0 080.0,070.0,080.0,511.000,515.367,,5.9557,,5.9501,,5.9529,34.2674,,34.2732,34.2666,,34.2686,34.2709,0.3253,,0.3404,0.3005,0.3203,,0.3382,0.3054,0.3030,14.146,15.0682,29.1524,13.929,16.1830,28.9470,29.0497,0.0319,,,, ,, , ,26.9849,,26.9850,,0.7218,83.4894,,,,2.1093E+03,,1.0000E-12,,5.9110,5.9054,0.8732,113.377,4.681,4.608,,,,,,,,,,,,
CalCOFI,2101RL,078,,2101_078u,03-Feb-2021 21:17:34,03-Feb-2021 13:17:34,35.21506,-123.78220,070.0 080.0,070.0,080.0,510.000,514.357,,5.9711,,5.9659,,5.9685,34.2652,,34.2710,34.2642,,34.2662,34.2686,0.3232,,0.3382,0.2983,0.3170,,0.3347,0.3019,0.3001,14.055,14.9730,29.0818,13.784,16.0818,28.8319,28.9569,0.0334,,,, ,, , ,26.9813,,26.9811,,0.7224,83.4764,,,,2.1090E+03,,1.0000E-12,,5.9264,5.9212,0.8732,113.725,4.652,4.562,,,,,,,,,,,,
CalCOFI,2101RL,078,,2101_078u,03-Feb-2021 21:17:35,03-Feb-2021 13:17:35,35.21506,-123.78220,070.0 080.0,070.0,080.0,509.000,513.347,,5.9764,,5.9724,,5.9744,34.2651,,34.2709,34.2637,,34.2657,34.2683,0.3256,,0.3407,0.3008,0.3222,,0.3402,0.3074,0.3041,14.160,15.0829,29.1632,14.012,16.1986,29.0128,29.0880,0.0331,,,, ,, , ,26.9805,,26.9799,,0.7224,83.4766,,,,2.1079E+03,,1.0000E-12,,5.9318,5.9278,0.8732,113.790,4.688,4.638,,,,,,,,,,,,
CalCOFI,2101RL,078,,2101_078u,03-Feb-2021 21:17:36,03-Feb-2021 13:17:36,35.21506,-123.78220,070.0 080.0,070.0,080.0,508.000,512.338,,5.9887,,5.9805,,5.9846,34.2645,,34.2703,34.2636,,34.2656,34.2680,0.3290,,0.3442,0.3043,0.3286,,0.3470,0.3142,0.3093,14.309,15.2389,29.2788,14.291,16.3642,29.2342,29.2565,0.0337,,,, ,, , ,26.9785,,26.9788,,0.7222,83.4819,,,,2.1064E+03,,1.0000E-12,,5.9441,5.9359,0.8732,113.983,4.738,4.731,,,,,,,,,,,,
CalCOFI,2101RL,078,,2101_078u,03-Feb-2021 21:17:37,03-Feb-2021 13:17:37,35.21506,-123.78220,070.0 080.0,070.0,080.0,507.000,511.328,,5.9972,,5.9903,,5.9938,34.2643,,34.2701,34.2628,,34.2648,34.2675,0.3281,,0.3433,0.3034,0.3244,,0.3425,0.3097,0.3066,14.268,15.1959,29.2470,14.107,16.3186,29.0882,29.1676,0.0325,,,, ,, , ,26.9773,,26.9769,,0.7224,83.4766,,,,2.1044E+03,,1.0000E-12,,5.9527,5.9458,0.8732,114.093,4.726,4.672,,,,,,,,,,,,
CalCOFI,2101RL,078,,2101_078u,03-Feb-2021 21:17:38,03-Feb-2021 13:17:38,35.21506,-123.78220,070.0 080.0,070.0,080.0,506.000,510.318,,6.0017,,6.0005,,6.0011,34.2639,,34.2697,34.2625,,34.2645,34.2671,0.3331,,0.3485,0.3086,0.3276,,0.3459,0.3131,0.3109,14.485,15.4231,29.4152,14.246,16.5600,29.1985,29.3069,0.0327,,,, ,, , ,26.9764,,26.9754,,0.7224,83.4766,,,,2.1033E+03,,1.0000E-12,,5.9572,5.9561,0.8732,114.169,4.798,4.719,,,,,,,,,,,,
CalCOFI,2101RL,078,,2101_078u,03-Feb-2021 21:17:39,03-Feb-2021 13:17:39,35.21506,-123.78220,070.0 080.0,070.0,080.0,505.000,509.308,,6.0066,,6.0060,,6.0063,34.2637,,34.2695,34.2623,,34.2643,34.2669,0.3346,,0.3501,0.3102,0.3312,,0.3498,0.3169,0.3136,14.550,15.4911,29.4656,14.405,16.6322,29.3247,29.3952,0.0325,,,, ,, , ,26.9755,,26.9746,,0.7224,83.4766,,,,2.1023E+03,,1.0000E-12,,5.9623,5.9616,0.8732,114.238,4.820,4.772,,,,,,,,,,,,
CalCOFI,2101RL,078,,2101_078u,03-Feb-2021 21:17:39,03-Feb-2021 13:17:39,35.21506,-123.78220,070.0 080.0,070.0,080.0,504.000,508.299,,6.0115,,6.0106,,6.0111,34.2636,,34.2694,34.2621,,34.2641,34.2668,0.3369,,0.3525,0.3126,0.3293,,0.3477,0.3149,0.3138,14.652,15.5979,29.5447,14.321,16.7457,29.2580,29.4014,0.0335,,,, ,, , ,26.9749,,26.9738,,0.7224,83.4766,,,,2.1029E+03,,1.0000E-12,,5.9672,5.9663,0.8732,114.294,4.854,4.745,,,,,,,,,,,,
CalCOFI,2101RL,078,,2101_078u,03-Feb-2021 21:17:40,03-Feb-2021 13:17:40,35.21506,-123.78222,070.0 080.0,070.0,080.0,503.000,507.289,,6.0174,,6.0167,,6.0171,34.2630,,34.2688,34.2617,,34.2637,34.2663,0.3320,,0.3474,0.3075,0.3307,,0.3492,0.3164,0.3120,14.436,15.3718,29.3772,14.380,16.5055,29.3049,29.3411,0.0321,,,, ,, , ,26.9736,,26.9727,,0.7224,83.4766,,,,2.1042E+03,,1.0000E-12,,5.9732,5.9725,0.8732,114.405,4.783,4.765,,,,,,,,,,,,
CalCOFI,2101RL,078,,2101_078u,03-Feb-2021 21:17:41,03-Feb-2021 13:17:41,35.21506,-123.78222,070.0 080.0,070.0,080.0,502.000,506.279,,6.0226,,6.0211,,6.0219,34.2627,,34.2685,34.2613,,34.2633,34.2659,0.3307,,0.3460,0.3061,0.3261,,0.3444,0.3115,0.3088,14.383,15.3163,29.3361,14.183,16.4465,29.1485,29.2423,0.0330,,,, ,, , ,26.9727,,26.9718,,0.7221,83.4823,,,,2.1040E+03,,1.0000E-12,,5.9785,5.9770,0.8732,114.480,4.767,4.700,,,,,,,,,,,,
CalCOFI,2101RL,078,,2101_078u,03-Feb-2021 21:17:42,03-Feb-2021 13:17:42,35.21506,-123.78222,070.0 080.0,070.0,080.0,501.000,505.269,,6.0245,,6.0194,,6.0220,34.2622,,34.2680,34.2608,,34.2628,34.2654,0.3326,,0.3480,0.3081,0.3326,,0.3513,0.3184,0.3133,14.466,15.4032,29.4005,14.462,16.5388,29.3699,29.3852,0.0319,,,, ,, , ,26.9721,,26.9716,,0.7223,83.4783,,,,2.1019E+03,,1.0000E-12,,5.9804,5.9754,0.8732,114.527,4.794,4.792,,,,,,,,,,,,
CalCOFI,2101RL,078,,2101_078u,03-Feb-2021 21:17:43,03-Feb-2021 13:17:43,35.21506,-123.78222,070.0 080.0,070.0,080.0,500.000,504.260,,6.0224,,6.0121,,6.0173,34.2631,,34.2689,34.2629,,34.2649,34.2669,0.3399,,0.3556,0.3157,0.3366,,0.3555,0.3227,0.3192,14.782,15.7340,29.6455,14.638,16.8902,29.5096,29.5776,0.0341,,,, ,, , ,26.9731,,26.9742,,0.7224,83.4766,,,,2.0983E+03,,1.0000E-12,,5.9784,5.9681,0.8732,114.420,4.899,4.850,,,,,,,,,,,,
CalCOFI,2101RL,078,,2101_078u,03-Feb-2021 21:17:44,03-Feb-2021 13:17:44,35.21506,-123.78222,070.0 080.0,070.0,080.0,499.000,503.250,,6.0383,,6.0345,,6.0364,34.2618,,34.2676,34.2603,,34.2623,34.2650,0.3346,,0.3501,0.3102,0.3322,,0.3508,0.3180,0.3141,14.553,15.4943,29.4680,14.445,16.6356,29.3565,29.4123,0.0330,,,, ,, , ,26.9701,,26.9693,,0.7224,83.4766,,,,2.0994E+03,,1.0000E-12,,5.9944,5.9906,0.8732,114.708,4.824,4.788,,,,,,,,,,,,
CalCOFI,2101RL,078,,2101_078u,03-Feb-2021 21:17:45,03-Feb-2021 13:17:45,35.21506,-123.78222,070.0 080.0,070.0,080.0,498.000,502.240,,6.0457,,6.0427,,6.0442,34.2612,,34.2670,34.2598,,34.2618,34.2644,0.3363,,0.3519,0.3119,0.3327,,0.3514,0.3185,0.3152,14.624,15.5686,29.5230,14.471,16.7145,29.3771,29.4501,0.0326,,,, ,, , ,26.9686,,26.9679,,0.7224,83.4766,,,,2.1032E+03,,1.0000E-12,,6.0018,5.9988,0.8732,114.842,4.849,4.798,,,,,,,,,,,,
CalCOFI,2101RL,078,,2101_078u,03-Feb-2021 21:17:46,03-Feb-2021 13:17:46,35.21505,-123.78223,070.0 080.0,070.0,080.0,497.000,501.230,,6.0474,,6.0461,,6.0468,34.2611,,34.2669,34.2597,,34.2617,34.2643,0.3425,,0.3584,0.3184,0.3326,,0.3513,0.3184,0.3184,14.894,15.8512,29.7324,14.465,17.0148,29.3723,29.5524,0.0326,,,, ,, , ,26.9683,,26.9674,,0.7220,83.4852,,,,2.1068E+03,,1.0000E-12,,6.0037,6.0023,0.8732,114.860,4.939,4.796,,,,,,,,,,,,
CalCOFI,2101RL,078,,2101_078u,03-Feb-2021 21:17:47,03-Feb-2021 13:17:47,35.21504,-123.78224,070.0 080.0,070.0,080.0,496.000,500.221,,6.0502,,6.0500,,6.0501,34.2606,,34.2664,34.2591,,34.2611,34.2638,0.3415,,0.3573,0.3173,0.3312,,0.3498,0.3169,0.3171,14.850,15.8052,29.6982,14.403,16.9658,29.3231,29.5107,0.0336,,,, ,, , ,26.9675,,26.9664,,0.7221,83.4821,,,,2.1097E+03,,1.0000E-12,,6.0065,6.0063,0.8732,114.919,4.924,4.776,,,,,,,,,,,,
CalCOFI,2101RL,078,,2101_078u,03-Feb-2021 21:17:48,03-Feb-2021 13:17:48,35.21504,-123.78224,070.0 080.0,070.0,080.0,495.000,499.211,,6.0517,,6.0514,,6.0516,34.2601,,34.2659,34.2586,,34.2606,34.2633,0.3379,,0.3535,0.3136,0.3391,,0.3582,0.3253,0.3195,14.694,15.6419,29.5773,14.745,16.7924,29.5945,29.5859,0.0321,,,, ,, , ,26.9670,,26.9658,,0.7224,83.4767,,,,2.1097E+03,,1.0000E-12,,6.0081,6.0078,0.8732,114.958,4.873,4.889,,,,,,,,,,,,
CalCOFI,2101RL,078,,2101_078u,03-Feb-2021 21:17:48,03-Feb-2021 13:17:48,35.21504,-123.78224,070.0 080.0,070.0,080.0,494.000,498.201,,6.0537,,6.0531,,6.0534,34.2598,,34.2656,34.2584,,34.2604,34.2630,0.3380,,0.3537,0.3137,0.3406,,0.3598,0.3269,0.3203,14.697,15.6450,29.5796,14.813,16.7957,29.6485,29.6141,0.0330,,,, ,, , ,26.9664,,26.9654,,0.7222,83.4812,,,,2.1075E+03,,1.0000E-12,,6.0102,6.0095,0.8732,114.999,4.874,4.912,,,,,,,,,,,,
CalCOFI,2101RL,078,,2101_078u,03-Feb-2021 21:17:49,03-Feb-2021 13:17:49,35.21504,-123.78226,070.0 080.0,070.0,080.0,493.000,497.191,,6.0524,,6.0543,,6.0534,34.2598,,34.2656,34.2582,,34.2602,34.2629,0.3418,,0.3576,0.3177,0.3379,,0.3569,0.3240,0.3209,14.862,15.8177,29.7076,14.694,16.9792,29.5541,29.6309,0.0332,,,, ,, , ,26.9666,,26.9651,,0.7219,83.4874,,,,2.1019E+03,,1.0000E-12,,6.0089,6.0108,0.8732,114.969,4.929,4.873,,,,,,,,,,,,
CalCOFI,2101RL,078,,2101_078u,03-Feb-2021 21:17:51,03-Feb-2021 13:17:51,35.21504,-123.78228,070.0 080.0,070.0,080.0,492.000,496.182,,6.0508,,6.0545,,6.0527,34.2603,,34.2661,34.2584,,34.2604,34.2633,0.3451,,0.3611,0.3211,0.3403,,0.3594,0.3266,0.3239,15.009,15.9716,29.8215,14.797,17.1427,29.6358,29.7287,0.0329,,,, ,, , ,26.9672,,26.9652,,0.7224,83.4763,,,,2.0945E+03,,1.0000E-12,,6.0075,6.0111,0.8732,114.898,4.977,4.907,,,,,,,,,,,,
CalCOFI,2101RL,078,,2101_078u,03-Feb-2021 21:17:52,03-Feb-2021 13:17:52,35.21504,-123.78228,070.0 080.0,070.0,080.0,491.000,495.172,,6.0683,,6.0655,,6.0669,34.2593,,34.2651,34.2579,,34.2599,34.2625,0.3497,,0.3659,0.3259,0.3501,,0.3698,0.3370,0.3315,15.206,16.1778,29.9743,15.226,17.3617,29.9763,29.9753,0.0333,,,, ,, , ,26.9641,,26.9634,,0.7215,83.4948,,,,2.0958E+03,,1.0000E-12,,6.0250,6.0222,0.8732,115.187,5.044,5.051,,,,,,,,,,,,
CalCOFI,2101RL,078,,2101_078u,03-Feb-2021 21:17:52,03-Feb-2021 13:17:52,35.21504,-123.78228,070.0 080.0,070.0,080.0,490.000,494.162,,6.0922,,6.0839,,6.0881,34.2580,,34.2638,34.2571,,34.2591,34.2615,0.3512,,0.3675,0.3274,0.3451,,0.3645,0.3317,0.3296,15.275,16.2501,30.0278,15.009,17.4384,29.8041,29.9160,0.0335,,,, ,, , ,26.9601,,26.9605,,0.7223,83.4794,,,,2.1019E+03,,1.0000E-12,,6.0489,6.0406,0.8732,115.582,5.070,4.981,,,,,,,,,,,,
CalCOFI,2101RL,078,,2101_078u,03-Feb-2021 21:17:53,03-Feb-2021 13:17:53,35.21504,-123.78226,070.0 080.0,070.0,080.0,489.000,493.153,,6.1074,,6.1021,,6.1048,34.2582,,34.2640,34.2572,,34.2592,34.2616,0.3519,,0.3682,0.3282,0.3471,,0.3667,0.3338,0.3310,15.304,16.2804,30.0503,15.094,17.4707,29.8715,29.9609,0.0330,,,, ,, , ,26.9583,,26.9582,,0.7224,83.4766,,,,2.1067E+03,,1.0000E-12,,6.0641,6.0588,0.8732,115.752,5.082,5.011,,,,,,,,,,,,
CalCOFI,2101RL,078,,2101_078u,03-Feb-2021 21:17:54,03-Feb-2021 13:17:54,35.21504,-123.78226,070.0 080.0,070.0,080.0,488.000,492.143,,6.1239,,6.1163,,6.1201,34.2577,,34.2635,34.2566,,34.2586,34.2611,0.3537,,0.3701,0.3300,0.3507,,0.3705,0.3376,0.3338,15.383,16.3631,30.1115,15.253,17.5585,29.9977,30.0546,0.0330,,,, ,, , ,26.9559,,26.9559,,0.7224,83.4766,,,,2.1102E+03,,1.0000E-12,,6.0806,6.0731,0.8732,115.989,5.110,5.066,,,,,,,,,,,,
CalCOFI,2101RL,078,,2101_078u,03-Feb-2021 21:17:54,03-Feb-2021 13:17:54,35.21504,-123.78226,070.0 080.0,070.0,080.0,487.000,491.133,,6.1371,,6.1348,,6.1360,34.2581,,34.2639,34.2567,,34.2587,34.2613,0.3489,,0.3651,0.3250,0.3520,,0.3719,0.3390,0.3320,15.172,16.1422,29.9479,15.308,17.3239,30.0413,29.9946,0.0323,,,, ,, , ,26.9544,,26.9537,,0.7224,83.4766,,,,2.1092E+03,,1.0000E-12,,6.0939,6.0916,0.8732,116.125,5.041,5.086,,,,,,,,,,,,
CalCOFI,2101RL,078,,2101_078u,03-Feb-2021 21:17:56,03-Feb-2021 13:17:56,35.21504,-123.78226,070.0 080.0,070.0,080.0,486.000,490.124,,6.1369,,6.1449,,6.1409,34.2583,,34.2641,34.2569,,34.2589,34.2615,0.3481,,0.3642,0.3242,0.3451,,0.3645,0.3317,0.3280,15.139,16.1077,29.9223,15.010,17.2872,29.8049,29.8636,0.0327,,,, ,, , ,26.9546,,26.9525,,0.7224,83.4766,,,,2.1037E+03,,1.0000E-12,,6.0938,6.1018,0.8732,116.094,5.030,4.988,,,,,,,,,,,,
CalCOFI,2101RL,078,,2101_078u,03-Feb-2021 21:17:57,03-Feb-2021 13:17:57,35.21506,-123.78226,070.0 080.0,070.0,080.0,485.000,489.114,,6.1298,,6.1414,,6.1356,34.2578,,34.2636,34.2581,,34.2601,34.2619,0.3481,,0.3642,0.3242,0.3449,,0.3643,0.3315,0.3279,15.139,16.1077,29.9223,15.001,17.2872,29.7977,29.8600,0.0332,,,, ,, , ,26.9551,,26.9539,,0.7224,83.4766,,,,2.1004E+03,,1.0000E-12,,6.0868,6.0983,0.8732,116.022,5.029,4.984,,,,,,,,,,,,
CalCOFI,2101RL,078,,2101_078u,03-Feb-2021 21:17:58,03-Feb-2021 13:17:58,35.21506,-123.78226,070.0 080.0,070.0,080.0,484.000,488.104,,6.1503,,6.1633,,6.1568,34.2602,,34.2660,34.2588,,34.2608,34.2634,0.3488,,0.3650,0.3249,0.3473,,0.3669,0.3340,0.3295,15.170,16.1402,29.9464,15.104,17.3217,29.8795,29.9130,0.0327,,,, ,, , ,26.9544,,26.9517,,0.7224,83.4766,,,,2.1021E+03,,1.0000E-12,,6.1073,6.1203,0.8732,116.098,5.042,5.021,,,,,,,,,,,,
CalCOFI,2101RL,078,,2101_078u,03-Feb-2021 21:17:59,03-Feb-2021 13:17:59,35.21506,-123.78226,070.0 080.0,070.0,080.0,483.000,487.095,,6.1918,,6.1870,,6.1894,34.2609,,34.2667,34.2601,,34.2621,34.2644,0.3509,,0.3672,0.3271,0.3509,,0.3707,0.3378,0.3325,15.259,16.2333,30.0154,15.261,17.4207,30.0040,30.0097,0.0336,,,, ,, , ,26.9497,,26.9497,,0.7224,83.4766,,,,2.1046E+03,,1.0000E-12,,6.1488,6.1440,0.8732,116.578,5.077,5.077,,,,,,,,,,,,
CalCOFI,2101RL,078,,2101_078u,03-Feb-2021 21:17:59,03-Feb-2021 13:17:59,35.21505,-123.78229,070.0 080.0,070.0,080.0,482.000,486.085,,6.1955,,6.1948,,6.1952,34.2610,,34.2668,34.2597,,34.2617,34.2643,0.3548,,0.3712,0.3312,0.3543,,0.3743,0.3415,0.3364,15.430,16.4123,30.1480,15.409,17.6108,30.1215,30.1348,0.0339,,,, ,, , ,26.9492,,26.9484,,0.7224,83.4766,,,,2.1060E+03,,1.0000E-12,,6.1526,6.1518,0.8732,116.612,5.134,5.127,,,,,,,,,,,,
CalCOFI,2101RL,078,,2101_078u,03-Feb-2021 21:18:00,03-Feb-2021 13:18:00,35.21506,-123.78230,070.0 080.0,070.0,080.0,481.000,485.075,,6.1979,,6.1958,,6.1969,34.2606,,34.2664,34.2593,,34.2613,34.2639,0.3536,,0.3700,0.3299,0.3473,,0.3669,0.3340,0.3320,15.377,16.3568,30.1069,15.104,17.5519,29.8795,29.9932,0.0325,,,, ,, , ,26.9487,,26.9479,,0.7224,83.4766,,,,2.1054E+03,,1.0000E-12,,6.1550,6.1529,0.8732,116.653,5.117,5.025,,,,,,,,,,,,
CalCOFI,2101RL,078,,2101_078u,03-Feb-2021 21:18:01,03-Feb-2021 13:18:01,35.21506,-123.78230,070.0 080.0,070.0,080.0,480.000,484.066,,6.1993,,6.1972,,6.1983,34.2594,,34.2652,34.2584,,34.2604,34.2628,0.3552,,0.3717,0.3316,0.3516,,0.3714,0.3386,0.3351,15.446,16.4291,30.1604,15.292,17.6286,30.0287,30.0946,0.0328,,,, ,, , ,26.9475,,26.9470,,0.7224,83.4766,,,,2.1036E+03,,1.0000E-12,,6.1565,6.1544,0.8732,116.754,5.140,5.088,,,,,,,,,,,,
CalCOFI,2101RL,078,,2101_078u,03-Feb-2021 21:18:02,03-Feb-2021 13:18:02,35.21506,-123.78230,070.0 080.0,070.0,080.0,479.000,483.056,,6.2014,,6.2078,,6.2046,34.2592,,34.2650,34.2574,,34.2594,34.2622,0.3597,,0.3764,0.3363,0.3562,,0.3763,0.3435,0.3399,15.645,16.6374,30.3147,15.489,17.8499,30.1850,30.2499,0.0325,,,, ,, , ,26.9471,,26.9448,,0.7224,83.4766,,,,2.1018E+03,,1.0000E-12,,6.1587,6.1651,0.8732,116.778,5.206,5.155,,,,,,,,,,,,
CalCOFI,2101RL,078,,2101_078u,03-Feb-2021 21:18:03,03-Feb-2021 13:18:03,35.21506,-123.78230,070.0 080.0,070.0,080.0,478.000,482.046,,6.2170,,6.2190,,6.2180,34.2581,,34.2639,34.2564,,34.2584,34.2612,0.3605,,0.3772,0.3371,0.3562,,0.3763,0.3435,0.3403,15.678,16.6719,30.3403,15.489,17.8866,30.1850,30.2627,0.0332,,,, ,, , ,26.9442,,26.9426,,0.7224,83.4766,,,,2.1013E+03,,1.0000E-12,,6.1743,6.1763,0.8732,117.051,5.219,5.156,,,,,,,,,,,,
CalCOFI,2101RL,078,,2101_078u,03-Feb-2021 21:18:04,03-Feb-2021 13:18:04,35.21506,-123.78230,070.0 080.0,070.0,080.0,477.000,481.037,,6.2228,,6.2248,,6.2238,34.2576,,34.2634,34.2563,,34.2583,34.2609,0.3642,,0.3811,0.3410,0.3522,,0.3721,0.3392,0.3401,15.837,16.8384,30.4635,15.316,18.0634,30.0477,30.2556,0.0342,,,, ,, , ,26.9430,,26.9418,,0.7224,83.4766,,,,2.1026E+03,,1.0000E-12,,6.1802,6.1822,0.8732,117.157,5.272,5.099,,,,,,,,,,,,
CalCOFI,2101RL,078,,2101_078u,03-Feb-2021 21:18:05,03-Feb-2021 13:18:05,35.21506,-123.78230,070.0 080.0,070.0,080.0,476.000,480.027,,6.2300,,6.2305,,6.2303,34.2569,,34.2627,34.2555,,34.2575,34.2601,0.3607,,0.3774,0.3373,0.3591,,0.3794,0.3466,0.3420,15.686,16.6803,30.3465,15.615,17.8955,30.2850,30.3158,0.0340,,,, ,, , ,26.9416,,26.9404,,0.7224,83.4766,,,,2.1055E+03,,1.0000E-12,,6.1875,6.1880,0.8732,117.285,5.223,5.199,,,,,,,,,,,,
CalCOFI,2101RL,078,,2101_078u,03-Feb-2021 21:18:06,03-Feb-2021 13:18:06,35.21506,-123.78230,070.0 080.0,070.0,080.0,475.000,479.018,,6.2307,,6.2310,,6.2309,34.2566,,34.2624,34.2550,,34.2570,34.2597,0.3664,,0.3834,0.3433,0.3625,,0.3830,0.3502,0.3468,15.932,16.9378,30.5372,15.766,18.1690,30.4048,30.4710,0.0321,,,, ,, , ,26.9412,,26.9399,,0.7224,83.4766,,,,2.1072E+03,,1.0000E-12,,6.1883,6.1885,0.8732,117.310,5.305,5.250,,,,,,,,,,,,
CalCOFI,2101RL,078,,2101_078u,03-Feb-2021 21:18:07,03-Feb-2021 13:18:07,35.21506,-123.78230,070.0 080.0,070.0,080.0,474.000,478.008,,6.2313,,6.2325,,6.2319,34.2558,,34.2616,34.2539,,34.2559,34.2588,0.3691,,0.3862,0.3461,0.3690,,0.3899,0.3571,0.3516,16.050,17.0613,30.6287,16.047,18.3003,30.6278,30.6283,0.0334,,,, ,, , ,26.9405,,26.9388,,0.7224,83.4766,,,,2.1072E+03,,1.0000E-12,,6.1890,6.1902,0.8732,117.360,5.345,5.344,,,,,,,,,,,,
CalCOFI,2101RL,078,,2101_078u,03-Feb-2021 21:18:08,03-Feb-2021 13:18:08,35.21506,-123.78230,070.0 080.0,070.0,080.0,473.000,476.998,,6.2314,,6.2340,,6.2327,34.2555,,34.2613,34.2534,,34.2554,34.2584,0.3703,,0.3875,0.3473,0.3626,,0.3831,0.3503,0.3488,16.103,17.1168,30.6698,15.771,18.3592,30.4088,30.5393,0.0328,,,, ,, , ,26.9402,,26.9382,,0.7227,83.4710,,,,2.1065E+03,,1.0000E-12,,6.1891,6.1917,0.8732,117.371,5.362,5.252,,,,,,,,,,,,
CalCOFI,2101RL,078,,2101_078u,03-Feb-2021 21:18:08,03-Feb-2021 13:18:08,35.21506,-123.78230,070.0 080.0,070.0,080.0,472.000,475.989,,6.2351,,6.2407,,6.2379,34.2550,,34.2608,34.2533,,34.2553,34.2581,0.3669,,0.3839,0.3438,0.3665,,0.3873,0.3544,0.3491,15.954,16.9608,30.5543,15.939,18.1935,30.5421,30.5482,0.0331,,,, ,, , ,26.9394,,26.9373,,0.7226,83.4714,,,,2.1056E+03,,1.0000E-12,,6.1929,6.1985,0.8732,117.440,5.313,5.308,,,,,,,,,,,,
CalCOFI,2101RL,078,,2101_078u,03-Feb-2021 21:18:09,03-Feb-2021 13:18:09,35.21506,-123.78231,070.0 080.0,070.0,080.0,471.000,474.979,,6.2492,,6.2558,,6.2525,34.2542,,34.2600,34.2521,,34.2541,34.2571,0.3710,,0.3882,0.3481,0.3707,,0.3917,0.3589,0.3535,16.134,17.1493,30.6938,16.123,18.3937,30.6881,30.6910,0.0325,,,, ,, , ,26.9369,,26.9344,,0.7224,83.4765,,,,2.1054E+03,,1.0000E-12,,6.2071,6.2136,0.8732,117.678,5.374,5.372,,,,,,,,,,,,
CalCOFI,2101RL,078,,2101_078u,03-Feb-2021 21:18:10,03-Feb-2021 13:18:10,35.21506,-123.78232,070.0 080.0,070.0,080.0,470.000,473.969,,6.2538,,6.2577,,6.2558,34.2533,,34.2591,34.2516,,34.2536,34.2564,0.3717,,0.3889,0.3488,0.3701,,0.3911,0.3582,0.3535,16.166,17.1828,30.7186,16.096,18.4293,30.6667,30.6927,0.0335,,,, ,, , ,26.9356,,26.9337,,0.7224,83.4766,,,,2.1032E+03,,1.0000E-12,,6.2117,6.2157,0.8732,117.792,5.386,5.363,,,,,,,,,,,,
CalCOFI,2101RL,078,,2101_078u,03-Feb-2021 21:18:11,03-Feb-2021 13:18:11,35.21506,-123.78232,070.0 080.0,070.0,080.0,469.000,472.960,,6.2461,,6.2497,,6.2479,34.2540,,34.2598,34.2520,,34.2540,34.2569,0.3708,,0.3880,0.3478,0.3692,,0.3901,0.3573,0.3526,16.124,17.1388,30.6861,16.056,18.3826,30.6350,30.6606,0.0336,,,, ,, , ,26.9371,,26.9351,,0.7224,83.4766,,,,2.0992E+03,,1.0000E-12,,6.2041,6.2078,0.8732,117.622,5.371,5.348,,,,,,,,,,,,
CalCOFI,2101RL,078,,2101_078u,03-Feb-2021 21:18:12,03-Feb-2021 13:18:12,35.21506,-123.78232,070.0 080.0,070.0,080.0,468.000,471.950,,6.2478,,6.2523,,6.2501,34.2536,,34.2594,34.2514,,34.2534,34.2564,0.3848,,0.4026,0.3624,0.3717,,0.3928,0.3599,0.3612,16.735,17.7784,31.1598,16.164,19.0620,30.7207,30.9403,0.0335,,,, ,, , ,26.9366,,26.9343,,0.7224,83.4766,,,,2.0991E+03,,1.0000E-12,,6.2059,6.2104,0.8732,117.657,5.574,5.385,,,,,,,,,,,,
CalCOFI,2101RL,078,,2101_078u,03-Feb-2021 21:18:13,03-Feb-2021 13:18:13,35.21506,-123.78232,070.0 080.0,070.0,080.0,467.000,470.941,,6.2565,,6.2562,,6.2564,34.2527,,34.2585,34.2512,,34.2532,34.2559,0.3897,,0.4078,0.3675,0.3799,,0.4015,0.3686,0.3681,16.949,18.0024,31.3258,16.521,19.3000,31.0040,31.1649,0.0333,,,, ,, , ,26.9347,,26.9336,,0.7224,83.4766,,,,2.1029E+03,,1.0000E-12,,6.2147,6.2144,0.8732,117.831,5.647,5.504,,,,,,,,,,,,
CalCOFI,2101RL,078,,2101_078u,03-Feb-2021 21:18:14,03-Feb-2021 13:18:14,35.21506,-123.78232,070.0 080.0,070.0,080.0,466.000,469.931,,6.2767,,6.2770,,6.2769,34.2467,,34.2525,34.2449,,34.2469,34.2497,0.3922,,0.4104,0.3701,0.3880,,0.4101,0.3772,0.3737,17.055,18.1134,31.4080,16.873,19.4178,31.2834,31.3457,0.0317,,,, ,, , ,26.9274,,26.9259,,0.7224,83.4766,,,,2.1060E+03,,1.0000E-12,,6.2349,6.2353,0.8732,118.527,5.685,5.624,,,,,,,,,,,,
CalCOFI,2101RL,078,,2101_078u,03-Feb-2021 21:18:15,03-Feb-2021 13:18:15,35.21506,-123.78232,070.0 080.0,070.0,080.0,465.000,468.922,,6.2762,,6.2782,,6.2772,34.2463,,34.2521,34.2436,,34.2456,34.2489,0.3943,,0.4126,0.3723,0.3934,,0.4158,0.3830,0.3777,17.148,18.2107,31.4801,17.108,19.5213,31.4699,31.4750,0.0330,,,, ,, , ,26.9271,,26.9247,,0.7224,83.4766,,,,2.1056E+03,,1.0000E-12,,6.2346,6.2366,0.8732,118.537,5.716,5.702,,,,,,,,,,,,